When you browse on this site, cookies collect data to enhance your experience and personalize the content and advertising you see.
Visit our Privacy Policy to learn more. By continuing to use the site, you agree to this use of cookies and data.
  • In Sweden
  • List of Countries
  • For 7 days
  • Water Temperature
  • Weather Map
  • Weather Widgets
  • user-avatar
    Login

    Hourly Weather Burgas

    Today, 22 January, Wednesday

    Time Temperature Precipitation Wind Pressure Humidity
    00:00 -1°C° 0 mm 2 mps 774 mmHg 80%
    01:00 -1°C° 0 mm 2 mps 774 mmHg 80%
    02:00 -1°C° 0 mm 2 mps 774 mmHg 80%
    03:00 -1°C° 0 mm 2 mps 773 mmHg 79%
    04:00 -1°C° 0 mm 2 mps 773 mmHg 78%
    05:00 -1°C° 0 mm 2 mps 772 mmHg 77%
    06:00 -1°C° 0 mm 2 mps 772 mmHg 76%
    07:00 -1°C° 0 mm 2 mps 772 mmHg 75%
    08:00 -1°C° 0 mm 3 mps 771 mmHg 74%
    09:00 +1°C° 0 mm 3 mps 771 mmHg 66%
    10:00 +3°C° 0 mm 3 mps 771 mmHg 57%
    11:00 +5°C° 0 mm 4 mps 770 mmHg 48%
    12:00 +6°C° 0 mm 4 mps 769 mmHg 47%
    13:00 +7°C° 0 mm 4 mps 769 mmHg 45%
    14:00 +8°C° 0 mm 4 mps 768 mmHg 43%
    15:00 +7°C° 0 mm 4 mps 767 mmHg 47%
    16:00 +7°C° 0 mm 3 mps 766 mmHg 51%
    17:00 +4°C° 0 mm 3 mps 765 mmHg 56%
    18:00 +4°C° 0 mm 3 mps 765 mmHg 57%
    19:00 +3°C° 0 mm 3 mps 765 mmHg 59%
    20:00 +1°C° 0 mm 4 mps 764 mmHg 60%
    21:00 +2°C° 0 mm 3 mps 764 mmHg 60%
    22:00 +2°C° 0 mm 3 mps 763 mmHg 60%
    23:00 +1°C° 0 mm 3 mps 763 mmHg 60%

    Tomorrow, 23 January, Thursday

    Time Temperature Precipitation Wind Pressure Humidity
    00:00 +1°C° 0 mm 3 mps 763 mmHg 58%
    01:00 +1°C° 0 mm 3 mps 763 mmHg 56%
    02:00 +1°C° 0 mm 3 mps 763 mmHg 54%
    03:00 0°C° 0 mm 4 mps 764 mmHg 55%
    04:00 0°C° 0 mm 5 mps 765 mmHg 56%
    05:00 0°C° 0 mm 5 mps 765 mmHg 57%
    06:00 0°C° 0 mm 5 mps 766 mmHg 59%
    07:00 0°C° 0 mm 5 mps 767 mmHg 62%
    08:00 -1°C° 0 mm 5 mps 769 mmHg 65%
    09:00 +1°C° 0 mm 5 mps 769 mmHg 58%
    10:00 +2°C° 0 mm 6 mps 769 mmHg 52%
    11:00 +3°C° 0 mm 6 mps 770 mmHg 46%
    12:00 +4°C° 0 mm 6 mps 770 mmHg 44%
    13:00 +5°C° 0 mm 6 mps 770 mmHg 42%
    14:00 +5°C° 0 mm 6 mps 770 mmHg 41%
    15:00 +6°C° 0 mm 5 mps 770 mmHg 45%
    16:00 +5°C° 0 mm 5 mps 770 mmHg 50%
    17:00 +4°C° 0 mm 4 mps 770 mmHg 54%
    18:00 +3°C° 0 mm 4 mps 771 mmHg 58%
    19:00 +1°C° 0 mm 4 mps 771 mmHg 62%
    20:00 +1°C° 0 mm 4 mps 772 mmHg 66%
    21:00 +1°C° 0 mm 3 mps 772 mmHg 67%
    22:00 +1°C° 0 mm 3 mps 772 mmHg 69%
    23:00 +1°C° 0 mm 2 mps 773 mmHg 71%

    Day after tomorrow, 24 January, Friday

    Time Temperature Precipitation Wind Pressure Humidity
    00:00 +1°C° 0 mm 2 mps 773 mmHg 71%
    01:00 +1°C° 0 mm 2 mps 773 mmHg 72%
    02:00 +2°C° 0 mm 1 mps 773 mmHg 73%
    03:00 +1°C° 0 mm 1 mps 773 mmHg 73%
    04:00 +1°C° 0 mm 1 mps 773 mmHg 74%
    05:00 +1°C° 0 mm 1 mps 773 mmHg 75%
    06:00 +1°C° 0 mm 1 mps 773 mmHg 74%
    07:00 +1°C° 0 mm 1 mps 773 mmHg 74%
    08:00 +1°C° 0 mm 1 mps 773 mmHg 73%
    09:00 +3°C° 0 mm 1 mps 773 mmHg 65%
    10:00 +5°C° 0 mm 1 mps 773 mmHg 56%
    11:00 +5°C° 0 mm 2 mps 773 mmHg 48%
    12:00 +6°C° 0 mm 2 mps 773 mmHg 45%
    13:00 +7°C° 0 mm 3 mps 772 mmHg 41%
    14:00 +8°C° 0 mm 3 mps 772 mmHg 38%
    15:00 +7°C° 0 mm 3 mps 771 mmHg 43%
    16:00 +5°C° 0 mm 3 mps 771 mmHg 48%
    17:00 +4°C° 0 mm 3 mps 771 mmHg 52%
    18:00 +3°C° 0 mm 3 mps 771 mmHg 54%
    19:00 +2°C° 0 mm 3 mps 771 mmHg 56%
    20:00 +1°C° 0 mm 3 mps 771 mmHg 58%
    21:00 +1°C° 0 mm 3 mps 771 mmHg 60%
    22:00 +1°C° 0 mm 3 mps 770 mmHg 61%
    23:00 +1°C° 0 mm 3 mps 770 mmHg 63%

    25 January, Saturday

    Time Temperature Precipitation Wind Pressure Humidity
    00:00 +1°C° 0 mm 3 mps 770 mmHg 66%
    01:00 0°C° 0 mm 3 mps 769 mmHg 69%
    02:00 0°C° 0 mm 3 mps 768 mmHg 72%
    03:00 0°C° 0 mm 3 mps 768 mmHg 75%
    04:00 0°C° 0 mm 3 mps 768 mmHg 78%
    05:00 -1°C° 0 mm 2 mps 768 mmHg 81%
    06:00 -1°C° 0 mm 2 mps 768 mmHg 83%
    07:00 -1°C° 0 mm 2 mps 767 mmHg 85%
    08:00 -1°C° 0 mm 3 mps 767 mmHg 86%
    09:00 +1°C° 0 mm 3 mps 767 mmHg 79%
    10:00 +4°C° 0 mm 3 mps 767 mmHg 71%
    11:00 +6°C° 0 mm 4 mps 767 mmHg 63%
    12:00 +7°C° 0 mm 4 mps 767 mmHg 60%
    13:00 +8°C° 0 mm 4 mps 766 mmHg 57%
    14:00 +10°C° 0 mm 4 mps 765 mmHg 54%
    15:00 +9°C° 0 mm 3 mps 765 mmHg 58%
    16:00 +8°C° 0 mm 3 mps 765 mmHg 63%
    17:00 +7°C° 0 mm 2 mps 765 mmHg 67%
    18:00 +6°C° 0 mm 2 mps 765 mmHg 69%
    19:00 +5°C° 0 mm 2 mps 766 mmHg 71%
    20:00 +5°C° 0 mm 2 mps 766 mmHg 73%
    21:00 +5°C° 0 mm 2 mps 766 mmHg 73%
    22:00 +5°C° 0 mm 2 mps 766 mmHg 73%
    23:00 +5°C° 0 mm 2 mps 766 mmHg 73%

    26 January, Sunday

    Time Temperature Precipitation Wind Pressure Humidity
    00:00 +4°C° 0 mm 2 mps 766 mmHg 73%
    01:00 +4°C° 0 mm 2 mps 766 mmHg 73%
    02:00 +4°C° 0 mm 2 mps 766 mmHg 74%
    03:00 +4°C° 0 mm 2 mps 766 mmHg 74%
    04:00 +4°C° 0 mm 2 mps 766 mmHg 74%
    05:00 +3°C° 0 mm 3 mps 766 mmHg 75%
    06:00 +3°C° 0 mm 3 mps 766 mmHg 73%
    07:00 +4°C° 0 mm 2 mps 766 mmHg 72%
    08:00 +4°C° 0 mm 2 mps 767 mmHg 71%
    09:00 +6°C° 0 mm 2 mps 767 mmHg 65%
    10:00 +7°C° 0 mm 2 mps 767 mmHg 60%
    11:00 +9°C° 0 mm 2 mps 767 mmHg 54%
    12:00 +10°C° 0 mm 2 mps 767 mmHg 53%
    13:00 +10°C° 0 mm 2 mps 766 mmHg 51%
    14:00 +12°C° 0 mm 2 mps 766 mmHg 50%
    15:00 +10°C° 0 mm 2 mps 766 mmHg 54%
    16:00 +10°C° 0 mm 1 mps 766 mmHg 59%
    17:00 +10°C° 0 mm 1 mps 766 mmHg 64%
    18:00 +9°C° 0 mm 1 mps 766 mmHg 68%
    19:00 +8°C° 0 mm 1 mps 766 mmHg 72%
    20:00 +8°C° 0 mm 1 mps 766 mmHg 76%
    21:00 +8°C° 0 mm 1 mps 766 mmHg 79%
    22:00 +7°C° 0 mm 1 mps 766 mmHg 82%
    23:00 +7°C° 0 mm 1 mps 766 mmHg 85%

    27 January, Monday

    Time Temperature Precipitation Wind Pressure Humidity
    00:00 +7°C° 0 mm 1 mps 765 mmHg 85%
    01:00 +7°C° 0 mm 1 mps 765 mmHg 86%
    02:00 +8°C° 0 mm 1 mps 765 mmHg 87%
    03:00 +8°C° 0 mm 1 mps 765 mmHg 87%
    04:00 +8°C° 0 mm 1 mps 764 mmHg 88%
    05:00 +8°C° 0 mm 1 mps 764 mmHg 88%
    06:00 +8°C° 0 mm 1 mps 764 mmHg 90%
    07:00 +9°C° 0 mm 1 mps 764 mmHg 91%
    08:00 +9°C° 0 mm 1 mps 764 mmHg 92%
    09:00 +9°C° 0.2 mm 1 mps 764 mmHg 92%
    10:00 +10°C° 0.2 mm 1 mps 764 mmHg 92%
    11:00 +10°C° 0.2 mm 1 mps 764 mmHg 92%
    12:00 +10°C° 0.3 mm 1 mps 764 mmHg 91%
    13:00 +10°C° 0.3 mm 1 mps 763 mmHg 91%
    14:00 +10°C° 0.3 mm 1 mps 763 mmHg 91%
    15:00 +10°C° 0.4 mm 1 mps 763 mmHg 92%
    16:00 +10°C° 0.4 mm 1 mps 763 mmHg 93%
    17:00 +9°C° 0.4 mm 1 mps 763 mmHg 94%
    18:00 +9°C° 0.1 mm 1 mps 764 mmHg 92%
    19:00 +9°C° 0.1 mm 1 mps 764 mmHg 91%
    20:00 +9°C° 0.1 mm 1 mps 764 mmHg 90%
    21:00 +8°C° 0 mm 1 mps 764 mmHg 90%
    22:00 +8°C° 0 mm 1 mps 765 mmHg 90%
    23:00 +7°C° 0 mm 1 mps 765 mmHg 90%
    Show more